Location: St. Louis
(38.6270°N, 90.1994°W)
Time: 02:39:11
(UTC-06:00)

Transit 4A - Pass Details

Date: 09 December 2021
Orbit: 863 x 981 km, 66.8° (Epoch: 24 January)

Event Time Altitude Azimuth Distance (km) Brightness Sun altitude
Rises 04:54:12 0° 311° (NW) 3,649 - -25.2°
Reaches altitude 10° 04:57:58 10° 289° (WNW) 2,714 - -24.5°
Maximum altitude 05:01:15 15° 258° (WSW) 2,389 - -23.9°
Drops below altitude 10° 05:04:34 10° 226° (SW) 2,723 - -23.2°
Exits shadow 05:06:20 - 214° (SW) 3,113 10.4 -22.9°
Sets 05:08:23 0° 204° (SSW) 3,667 10.9 -22.5°
